Regional Weather Roundup
Issued by NWS Cleveland, OH

Home | Current Version | Previous Version | Graphics & Text | Print | Product List | Glossary On
Versions: 1 2 3 4 5 6 7 8 9 10 11 12 13 14 15 16 17 18 19 20 21 22 23 24 25 26 27 28 29 30 31 32 33 34 35 36 37 38 39 40 41 42 43 44 45 46 47 48 49 50
000
ASUS41 KCLE 122102
RWRCLE
OHIO REGIONAL WEATHER ROUNDUP
NATIONAL WEATHER SERVICE CLEVELAND, OH
500 PM EDT SAT JUL 12 2014

NOTE: "FAIR" INDICATES FEW OR NO CLOUDS BELOW 12,000 FEET WITH NO
SIGNIFICANT WEATHER AND/OR OBSTRUCTIONS TO VISIBILITY.

OHZ001>008-015>018-024>027-034-035-043-044-122200-
   NORTHWEST OHIO

CITY           SKY/WX    TMP DP  RH WIND       PRES   REMARKS
DEFIANCE       CLOUDY    82  68  62 S12G18    30.02F
FINDLAY        CLOUDY    83  67  58 S9        30.03F
TOLEDO EXPRESS CLOUDY    84  67  56 VRB6      30.01F
TOLEDO EXEC    PTSUNNY   86  64  47 S14       30.03F
LIMA           CLOUDY    82  68  62 S8        30.04F
$$

OHZ009>014-019>023-028>033-038-089-122200-
   NORTHEAST OHIO

CITY           SKY/WX    TMP DP  RH WIND       PRES   REMARKS
CLE-HOPKINS    PTSUNNY   83  62  49 SW13G18   30.09F
CLE-LAKEFRONT  MOSUNNY   81  66  60 NE5       30.06F
CUY CO. ARPT   PTSUNNY   84  66  54 NW6       30.10F
LORAIN-ELYRIA  PTSUNNY   85  60  42 SW10      30.09F
ASHTABULA      PTSUNNY   82  60  47 S8        30.11F
AKRON-CANTON   PTSUNNY   84  60  44 W10       30.12F
WOOSTER        PTSUNNY   82  64  54 SW8       30.11F
MANSFIELD      CLOUDY    84  59  42 S9        30.11F
YOUNGSTOWN     CLOUDY    82  61  48 S10       30.12F
$$

OHZ042-051>053-060>062-070>072-077>081-122200-
  SOUTHWEST OHIO

CITY           SKY/WX    TMP DP  RH WIND       PRES   REMARKS
CINC-COVINGTON CLOUDY    83  67  58 SW3       30.12F
CINC-LUNKEN    CLOUDY    83  67  58 SW8       30.11F
HAMILTON       CLOUDY    83  68  60 SW5       30.11F
DAYTON         CLOUDY    82  67  60 S13       30.08F
WRIGHT-PAT AFB NOT AVBL
DAYTON GENERAL CLOUDY    82  68  62 S10       30.09F
WILMINGTON     CLOUDY    81  65  58 S8        30.12F
$$

OHZ036-037-039>041-045>050-054>059-063>069-073>076-082>088-122200-
  CENTRAL AND SOUTHEAST OHIO

CITY           SKY/WX    TMP DP  RH WIND       PRES   REMARKS
COLUMBUS       CLOUDY    86  60  41 VRB7      30.10F
OSU AIRPORT    PTSUNNY   84  62  47 SW8       30.10F
BOLTON FIELD   MOSUNNY   82  66  57 S10       30.11F
RICKENBACK AFB PTSUNNY   87  53  31 SW9       30.10F
NEWARK         PTSUNNY   82  61  48 SW9       30.11F
MARION         PTSUNNY   83  64  52 S12       30.09F
LANCASTER      PTSUNNY   83  63  50 W8        30.12F
ZANESVILLE     PTSUNNY   83  59  44 W8        30.13F
NEW PHILLY     PTSUNNY   83  64  52 SW6       30.12F
$$


USA.gov is the U.S. government's official web portal to all federal, state and local government web resources and services.